Stations météo

Publicité
Cap Cepet, France (7661): Température de l'air & dewpoint: 11.12.2017 03:00:00 - 17.12.2017 03:00:00 (CET)Cap Cepet, France (7661): Vitesse du vent & gusts: 11.12.2017 03:00:00 - 17.12.2017 03:00:00 (CET)Cap Cepet, France (7661): Direction du vent: 11.12.2017 03:00:00 - 17.12.2017 03:00:00 (CET)Cap Cepet, France (7661): reduced air pressure: 11.12.2017 03:00:00 - 17.12.2017 03:00:00 (CET)Cap Cepet, France (7661): visibility: 11.12.2017 03:00:00 - 17.12.2017 03:00:00 (CET)Cap Cepet, France (7661): Quantités de précipitations: 11.12.2017 03:00:00 - 17.12.2017 03:00:00 (CET)
Date & Time tt [°C] td [°C] ff [km/h] ff [knt] fx [km/h] fx [knt] dd ppp [hPa] vv [km] rr [mm]
17.12.2017 03:00:00 6,0 -4,2 14 8 34 18 W 1016,2 - 0,0
17.12.2017 02:00:00 6,4 -4,4 19 10 47 25 WNW 1015,8 - 0,0
17.12.2017 01:00:00 6,2 -4,6 21 12 40 22 NW 1015,2 - 0,0
17.12.2017 00:00:00 6,1 -4,7 20 11 41 22 WNW 1015,2 - 0,0
16.12.2017 23:00:00 6,1 -2,5 27 15 47 25 WNW 1014,8 - 0,0
16.12.2017 22:00:00 6,6 -3,4 27 15 46 25 WNW 1014,2 - 0,0
16.12.2017 21:00:00 6,5 -2,7 24 13 57 31 WNW 1013,8 - 0,0
16.12.2017 20:00:00 7,0 -2,5 21 11 46 25 WNW 1013,2 - 0,0
16.12.2017 19:00:00 7,5 -2,5 21 12 71 38 WNW 1012,4 - 0,0
16.12.2017 18:00:00 7,3 -1,9 27 15 46 25 WNW 1011,7 - 0,0
16.12.2017 17:00:00 7,7 -1,3 19 10 63 34 WNW 1011,8 - 0,0
16.12.2017 16:00:00 8,8 -0,5 38 21 69 38 WNW 1010,2 - 0,0
16.12.2017 15:00:00 9,4 -0,5 41 22 63 34 W 1009,3 - 0,0
16.12.2017 14:00:00 10,4 -2,0 29 16 63 34 WNW 1008,4 - 0,0
16.12.2017 13:00:00 10,2 -2,2 38 20 70 38 WNW 1008,0 - 0,0
16.12.2017 12:00:00 8,9 -1,5 27 14 59 32 W 1008,9 - 0,0
16.12.2017 11:00:00 8,2 -1,1 29 16 67 36 WNW 1009,2 - 0,0
16.12.2017 10:00:00 7,8 -1,2 12 7 62 33 NW 1008,0 - 0,0
16.12.2017 09:00:00 6,5 -1,4 39 21 84 45 WNW 1006,8 - 0,0
16.12.2017 08:00:00 6,1 -1,3 55 30 90 49 WNW 1005,1 - 0,0
16.12.2017 07:00:00 6,2 -1,5 53 29 88 48 W 1005,2 - 0,0
16.12.2017 06:00:00 6,2 -0,3 46 25 79 42 WNW 1004,9 - 0,0
16.12.2017 05:00:00 6,1 -0,2 34 19 64 35 W 1005,3 - 0,0
16.12.2017 04:00:00 6,4 0,5 40 22 59 32 W 1005,5 15 0,0
16.12.2017 03:00:00 6,3 0,8 27 15 57 31 WNW 1005,6 - 0,0
16.12.2017 02:00:00 6,5 1,4 40 21 72 39 WNW 1004,6 - 0,0
16.12.2017 01:00:00 7,1 1,6 42 23 74 40 WNW 1004,2 - 0,0
16.12.2017 00:00:00 7,7 1,7 38 21 83 45 W 1004,1 - 0,0
15.12.2017 23:00:00 7,7 4,1 39 21 77 42 W 1003,4 - 0,6
15.12.2017 22:00:00 8,1 2,3 23 12 58 31 WNW 1003,6 - 0,0
15.12.2017 21:00:00 8,2 2,0 33 18 55 30 WNW 1003,8 - 0,0
15.12.2017 20:00:00 8,4 1,8 27 15 46 25 WNW 1003,9 - 0,0
15.12.2017 19:00:00 8,7 1,4 27 15 54 29 W 1003,4 - 0,0
15.12.2017 18:00:00 8,9 1,1 35 19 55 30 W 1002,8 - 0,0
15.12.2017 17:00:00 9,5 1,4 31 17 59 32 W 1002,3 - 0,0
15.12.2017 16:00:00 9,8 2,2 37 20 61 33 W 1001,6 25 0,0
15.12.2017 15:00:00 10,0 3,0 32 18 58 31 W 1001,3 - 0,0
15.12.2017 14:00:00 9,8 2,9 31 17 55 30 W 1001,6 - 0,0
15.12.2017 13:00:00 9,8 3,7 34 18 67 36 W 1001,8 - 0,0
15.12.2017 12:00:00 10,7 3,2 32 18 59 32 W 1003,0 - 0,0
15.12.2017 11:00:00 10,9 3,9 16 8 36 19 W 1003,2 - 0,0
15.12.2017 10:00:00 10,2 6,2 24 13 51 28 NW 1002,6 25 0,0
15.12.2017 09:00:00 10,7 6,6 30 16 49 27 WNW 1003,1 - 0,0
15.12.2017 08:00:00 11,2 7,5 21 12 46 25 W 1002,7 - 0,0
15.12.2017 07:00:00 11,4 7,7 26 14 45 24 W 1002,7 15 0,0
15.12.2017 06:00:00 11,6 8,3 24 13 59 32 W 1003,3 - 0,0
15.12.2017 05:00:00 12,2 8,5 36 20 63 34 W 1003,9 - 0,0
15.12.2017 04:00:00 12,4 8,7 35 19 56 30 W 1005,2 - 0,0
15.12.2017 03:00:00 12,3 9,8 23 12 41 22 W 1006,1 - 0,0
15.12.2017 02:00:00 12,4 10,1 24 13 45 24 WSW 1006,7 - 0,0
15.12.2017 01:00:00 12,3 9,3 30 16 53 29 W 1007,2 - 0,0
15.12.2017 00:00:00 12,7 9,0 34 18 58 32 W 1007,9 - 0,0
14.12.2017 23:00:00 13,0 8,7 33 18 58 31 W 1008,2 - 0,0
14.12.2017 22:00:00 13,3 7,9 23 13 47 26 W 1009,0 - 0,0
14.12.2017 21:00:00 12,8 10,2 26 14 47 25 SW 1009,4 - 0,0
14.12.2017 20:00:00 12,7 10,6 22 12 47 26 SW 1009,8 - 0,0
14.12.2017 19:00:00 12,7 9,1 21 11 45 24 WSW 1010,2 - 0,0
14.12.2017 18:00:00 12,2 9,0 22 12 53 29 WSW 1010,4 - 0,0
14.12.2017 17:00:00 12,2 8,8 31 17 53 29 W 1010,6 - 0,0
14.12.2017 16:00:00 12,9 7,8 29 16 61 33 W 1010,8 - 0,0
14.12.2017 15:00:00 13,3 7,7 39 21 64 35 W 1010,0 - 0,0
14.12.2017 14:00:00 13,4 9,1 40 22 61 33 W 1010,5 - 0,0
14.12.2017 13:00:00 13,5 9,0 29 16 53 29 W 1011,1 15 0,0
14.12.2017 12:00:00 12,8 9,6 35 19 53 29 W 1012,3 - 0,0
14.12.2017 11:00:00 12,4 9,4 32 18 51 27 W 1013,3 - 0,0
14.12.2017 10:00:00 12,1 8,2 22 12 40 22 WNW 1013,7 - 0,0
14.12.2017 09:00:00 11,9 8,6 20 11 37 20 W 1013,2 - 0,0
14.12.2017 08:00:00 11,8 8,6 22 12 45 24 W 1012,6 - 0,0
14.12.2017 07:00:00 12,0 8,7 27 14 50 27 W 1012,4 - 0,0
14.12.2017 06:00:00 11,6 8,4 26 14 38 21 W 1012,2 - 0,0
14.12.2017 05:00:00 11,0 8,0 16 8 32 17 W 1012,7 - 0,0
14.12.2017 04:00:00 11,0 8,7 23 12 44 24 W 1013,6 - 0,0
14.12.2017 03:00:00 10,7 8,6 22 12 33 18 W 1014,0 - 0,0
14.12.2017 02:00:00 10,3 7,5 18 10 27 15 W 1014,5 - 0,0
14.12.2017 01:00:00 9,8 7,0 14 8 24 13 W 1015,4 - 0,0
14.12.2017 00:00:00 9,0 6,8 16 9 22 12 W 1016,2 - 0,0
13.12.2017 23:00:00 8,5 5,9 16 9 22 12 W 1016,5 - 0,0
13.12.2017 22:00:00 8,6 5,2 11 6 16 9 WNW 1017,0 - 0,0
13.12.2017 21:00:00 8,7 4,5 12 7 22 12 W 1017,5 - 0,0
13.12.2017 20:00:00 8,3 4,1 15 8 25 13 WNW 1017,8 - 0,0
13.12.2017 19:00:00 7,9 3,5 13 7 22 12 W 1017,8 20 0,0
13.12.2017 18:00:00 8,0 3,8 12 7 25 13 WNW 1018,2 - 0,0
13.12.2017 17:00:00 8,5 4,1 18 10 36 19 W 1018,8 - 0,0
13.12.2017 16:00:00 9,3 3,5 26 14 49 27 W 1018,6 - 0,0
13.12.2017 15:00:00 9,6 1,7 33 18 59 32 W 1018,9 - 0,0
13.12.2017 14:00:00 9,8 0,4 35 19 54 29 W 1019,0 - 0,0
13.12.2017 13:00:00 9,6 -0,3 25 14 44 24 W 1019,4 - 0,0
13.12.2017 12:00:00 10,3 -1,1 28 15 55 30 W 1019,8 - 0,0
13.12.2017 11:00:00 9,3 -3,3 35 19 51 28 W 1020,3 - 0,0
13.12.2017 10:00:00 8,6 -3,0 26 14 39 21 W 1020,2 40 0,0
13.12.2017 09:00:00 7,2 -3,4 22 12 35 19 W 1019,9 - 0,0
13.12.2017 08:00:00 6,8 -4,0 26 14 48 26 W 1019,6 - 0,0
13.12.2017 07:00:00 7,5 -4,3 29 16 49 27 W 1018,9 15 0,0
13.12.2017 06:00:00 7,5 -3,7 27 15 47 25 W 1018,1 - 0,0
13.12.2017 05:00:00 7,7 -5,1 24 13 41 22 WNW 1017,5 - 0,0
13.12.2017 04:00:00 6,1 -5,0 27 15 50 27 W 1017,7 15 0,0
13.12.2017 03:00:00 6,5 -4,0 29 16 47 25 WNW 1017,4 - 0,0
13.12.2017 02:00:00 5,8 -0,1 29 15 42 23 WNW 1017,1 - 0,0
13.12.2017 01:00:00 5,5 1,4 26 14 44 24 W 1017,1 - 0,0
13.12.2017 00:00:00 5,7 2,2 26 14 37 20 W 1017,1 - 0,0
12.12.2017 23:00:00 5,9 2,9 13 7 32 18 WNW 1016,7 - 0,0
12.12.2017 22:00:00 6,5 2,4 26 14 39 21 W 1016,3 - 0,0
12.12.2017 21:00:00 7,3 3,2 23 13 36 20 W 1015,9 - 0,0
12.12.2017 20:00:00 7,6 4,0 17 9 31 17 W 1015,3 - 0,0
12.12.2017 19:00:00 7,8 4,4 19 11 35 19 W 1014,7 15 0,0
12.12.2017 18:00:00 8,4 4,4 20 11 36 19 W 1014,1 - 0,0
12.12.2017 17:00:00 9,1 4,1 22 12 41 22 W 1013,5 - 0,0
12.12.2017 16:00:00 9,6 4,2 22 12 43 23 W 1012,8 25 0,0
12.12.2017 15:00:00 10,4 4,3 26 14 42 23 W 1012,3 - 0,0
12.12.2017 14:00:00 10,1 3,8 25 13 42 23 W 1011,9 - 0,0
12.12.2017 13:00:00 10,5 4,8 22 12 51 28 W 1011,5 - 0,0
12.12.2017 12:00:00 9,4 3,8 34 19 52 28 W 1011,5 - 0,0
12.12.2017 11:00:00 9,3 4,1 16 9 27 15 W 1011,8 - 0,0
12.12.2017 10:00:00 8,6 4,2 7 4 12 6 WNW 1011,4 25 0,0
12.12.2017 09:00:00 7,6 3,8 6 4 14 8 NW 1010,2 - 0,0
12.12.2017 08:00:00 7,2 3,2 8 5 24 13 W 1009,2 - 0,0
12.12.2017 07:00:00 7,9 3,7 16 9 31 17 WNW 1007,9 - 0,0
12.12.2017 06:00:00 7,5 5,1 21 11 33 18 WNW 1006,8 - 0,0
12.12.2017 05:00:00 7,7 5,5 16 8 31 17 WNW 1006,0 - 0,0
12.12.2017 04:00:00 8,1 5,9 18 10 28 15 WNW 1005,3 - 0,0
12.12.2017 03:00:00 8,3 5,6 14 8 26 14 W 1004,7 - 0,0
12.12.2017 02:00:00 8,7 6,1 18 10 34 19 W 1003,9 - 0,0
12.12.2017 01:00:00 8,2 5,3 17 9 31 17 W 1002,9 - 0,0
12.12.2017 00:00:00 8,3 5,9 20 11 35 19 W 1001,8 - 0,0
11.12.2017 23:00:00 8,3 5,9 21 11 39 21 W 1000,0 - 0,0
11.12.2017 22:00:00 9,0 6,6 25 14 46 25 W 998,7 - 0,0
11.12.2017 21:00:00 9,1 7,0 21 11 48 26 W 996,8 - 0,0
11.12.2017 20:00:00 9,5 8,4 36 19 54 29 W 995,1 - 0,0
11.12.2017 19:00:00 9,7 9,1 35 19 62 33 W 993,3 - 0,2
11.12.2017 18:00:00 11,7 11,4 26 14 49 27 W 991,7 - 0,2
11.12.2017 17:00:00 13,3 13,1 24 13 60 32 SSW 990,9 - 1,7
11.12.2017 16:00:00 14,1 13,8 23 12 62 34 S 989,9 - 2,4
11.12.2017 15:00:00 13,9 13,6 27 15 57 31 S 990,4 - 0,2
11.12.2017 14:00:00 14,0 13,7 29 16 58 32 S 990,7 - 0,6
11.12.2017 13:00:00 13,9 13,6 23 13 59 32 S 990,9 1,0 0,6
11.12.2017 12:00:00 13,9 13,1 24 13 62 33 S 991,3 - 0,4
11.12.2017 11:00:00 13,8 12,9 26 14 66 35 S 991,6 - 0,4
11.12.2017 10:00:00 13,9 12,8 26 14 76 41 S 991,6 10 0,2
11.12.2017 09:00:00 13,9 12,9 33 18 67 36 S 991,6 - 0,2
11.12.2017 08:00:00 13,6 13,3 28 15 58 31 S 991,6 - 1,4
11.12.2017 07:00:00 13,5 13,0 29 15 63 34 S 991,8 10 0,8
11.12.2017 06:00:00 13,6 13,0 27 15 56 31 S 992,4 - 0,6
11.12.2017 05:00:00 13,8 12,5 26 14 55 30 S 993,2 - 0,0
11.12.2017 04:00:00 13,8 12,5 23 12 50 27 S 994,1 - 0,0
11.12.2017 03:00:00 13,7 12,4 19 10 41 22 S 996,0 - 0,0

tt = Température de l'air
td = dewpoint
ff = Vitesse du vent
fx = gusts
dd = Direction du vent
ppp = reduced air pressure
vv = visibility
rr = Quantités de précipitations

stations d'obs. à proximité